Theta_e
296 296 296 296 296 295 295 295 295 295 294 294 294 293 293 293 292 292 292 291 291 291 290 290 289 289 288 288 287 286 286 286 285 285 284 284 284 284 284 284 283 283 282 282 282 282 282 282 282 282 282 282 282 281 280 279 279 278 277 277 277 277 277 277 276 276 277 277 277 277 277 276 277 277 277 277 277 277 277 277 277 277 276 277 276
296 297 296 296 296 295 295 295 295 294 294 294 293 293 293 293 292 292 291 291 291 290 290 290 289 289 288 287 287 286 286 285 285 284 284 284 284 284 284 284 283 282 282 282 282 282 282 281 281 281 281 281 281 280 280 279 278 277 277 276 276 276 276 275 275 275 275 275 276 276 276 275 275 276 276 276 276 276 277 277 277 276 276 276 276
297 296 296 295 295 295 295 295 294 294 293 293 293 293 293 293 292 292 291 291 291 290 290 290 289 289 288 287 287 286 285 285 284 284 284 284 284 283 283 283 282 282 282 282 282 282 281 281 281 281 281 280 280 280 279 278 278 277 276 276 275 275 275 274 274 274 274 274 275 275 275 275 275 275 276 276 276 276 276 277 277 277 277 277 277
297 296 295 295 295 294 294 294 293 293 293 293 293 293 293 292 292 291 291 290 290 290 290 289 289 288 288 287 286 286 285 284 284 283 283 283 283 283 283 283 282 282 283 283 282 282 282 281 281 281 280 280 280 279 279 278 277 277 276 275 275 275 275 274 274 274 273 273 274 274 275 275 275 275 276 276 276 276 276 276 276 277 277 277 277
297 296 295 294 294 294 294 293 293 293 293 293 293 293 293 292 291 291 290 290 290 290 289 289 288 288 287 287 286 286 285 284 284 283 283 283 283 283 283 282 282 282 283 283 283 282 282 281 281 281 281 280 280 279 279 278 277 276 276 275 275 275 274 274 274 273 273 273 274 274 275 275 275 276 276 276 276 276 276 277 277 277 277 277 277
296 295 295 294 293 293 293 293 293 293 293 293 293 292 292 292 291 290 290 290 289 289 288 288 288 288 288 287 286 286 285 284 283 283 283 282 282 282 282 282 282 282 282 282 282 282 282 282 281 281 281 281 280 280 279 278 277 276 276 275 275 274 274 274 274 274 273 274 274 275 275 276 276 276 276 276 276 277 277 277 277 277 278 278 278
296 295 295 294 294 293 293 293 293 293 293 293 292 292 291 291 290 290 289 289 289 288 288 288 288 288 287 287 286 286 285 284 283 283 282 282 282 281 281 281 281 281 281 281 282 282 282 281 281 281 281 281 281 280 279 278 277 276 276 275 275 274 274 274 274 274 274 274 275 275 275 276 276 276 276 277 277 277 277 277 278 278 278 278 278
296 295 294 294 293 293 293 293 293 293 292 292 292 291 291 291 290 290 289 289 288 288 288 287 287 287 287 286 286 285 284 284 283 282 282 282 282 281 281 281 280 280 280 280 281 281 281 281 281 281 281 281 280 280 279 278 277 276 275 275 275 274 274 274 275 275 275 275 275 276 276 276 277 277 277 277 277 278 278 278 278 278 278 278 277
296 295 294 293 294 294 293 293 292 292 292 291 291 291 291 290 290 290 289 289 288 288 288 287 287 286 286 286 285 284 284 283 283 283 282 281 281 280 280 280 280 280 279 279 280 280 280 280 280 280 280 279 279 279 278 277 277 276 275 275 274 274 275 275 275 275 275 276 276 276 277 277 277 277 277 278 278 278 278 278 278 277 277 277 277
296 295 294 294 295 294 293 292 292 292 291 291 291 291 290 290 290 289 289 288 288 287 287 286 286 286 285 284 284 284 283 283 283 283 283 282 281 280 280 279 279 279 279 279 278 279 279 279 279 278 278 278 277 277 277 276 276 276 276 275 275 275 276 276 276 276 276 276 277 277 277 277 277 277 278 278 278 278 277 277 277 277 277 277 277
295 295 295 295 295 293 293 292 292 291 291 291 291 290 290 290 289 289 288 287 287 287 286 286 285 285 285 284 284 283 282 282 282 282 282 282 281 280 279 279 279 279 279 279 278 278 277 277 277 277 276 276 276 276 276 276 276 276 276 276 277 277 277 277 277 277 277 277 277 277 277 277 278 277 278 278 277 277 277 276 277 277 277 277 277
294 294 294 295 294 293 293 292 292 292 291 291 290 290 290 289 289 288 287 287 287 286 286 285 285 284 284 283 283 282 282 282 282 282 281 281 281 280 279 279 279 278 278 278 278 277 276 276 275 275 275 276 276 276 276 277 277 277 277 278 278 278 278 278 278 278 278 278 278 278 277 277 277 277 277 277 277 276 276 277 277 277 277 277 277
292 292 293 293 293 293 293 292 292 292 291 291 290 290 289 289 288 288 287 287 286 285 285 285 284 284 283 283 282 282 282 281 281 281 281 280 280 280 279 279 279 278 278 278 277 276 275 275 274 275 276 276 276 276 276 277 277 278 278 278 278 278 278 278 278 278 278 278 277 277 277 277 277 277 277 276 276 276 277 277 277 277 277 277 277
291 291 291 292 292 292 292 292 292 291 291 290 290 289 289 288 288 287 287 286 285 285 284 284 284 283 283 282 282 281 281 281 281 281 281 280 279 279 279 279 278 278 278 277 276 275 275 275 275 275 276 276 276 276 276 276 276 276 277 276 276 276 276 276 276 276 276 277 277 277 277 276 276 276 276 276 276 277 277 277 277 277 276 276 275
290 290 290 290 290 291 291 291 291 291 290 290 289 289 288 288 287 286 286 285 285 284 284 283 283 282 282 282 281 280 280 280 280 281 281 280 279 279 278 278 277 277 276 276 275 275 275 276 276 276 276 276 276 275 275 275 275 275 275 275 275 275 275 275 275 276 276 276 276 276 276 276 276 276 277 277 277 277 277 277 276 275 274 273 273
290 289 289 289 289 289 290 290 290 290 289 289 288 288 287 287 286 286 285 284 284 283 283 282 282 281 281 281 280 280 279 279 280 281 281 281 280 278 277 277 276 276 275 275 275 275 276 276 276 276 276 276 276 275 275 275 274 274 274 274 275 275 275 275 276 276 276 276 276 276 277 277 277 277 277 277 277 277 277 275 274 273 272 271 271
290 289 288 288 288 288 288 289 289 289 289 288 287 287 286 286 285 285 284 283 282 282 282 281 281 281 280 280 279 279 278 279 280 282 282 281 280 278 276 276 275 275 275 275 275 275 276 276 276 276 276 275 275 276 276 275 274 275 275 275 275 275 275 275 275 276 276 276 277 276 276 276 276 276 276 276 276 276 274 273 272 271 271 271 271
290 289 289 288 287 287 287 287 288 288 287 287 287 286 285 285 284 284 283 282 282 281 281 281 280 280 279 279 279 278 278 278 280 282 282 282 280 278 276 275 275 275 276 276 276 276 276 276 276 276 276 275 275 276 276 276 276 276 276 276 275 275 275 275 275 276 276 275 275 274 274 274 275 275 274 274 274 273 272 271 271 270 270 270 270
290 289 289 289 288 287 286 286 287 287 287 286 286 285 285 284 284 283 283 282 281 281 280 280 279 279 279 278 278 278 278 278 280 282 283 282 280 278 276 276 276 276 276 276 276 276 276 276 276 275 275 275 275 276 277 277 276 276 276 276 275 275 275 275 276 275 274 274 273 273 273 274 274 273 273 272 271 270 270 269 269 269 269 269 270
290 289 289 289 289 288 286 286 286 286 286 286 285 284 284 283 283 282 282 281 280 280 279 279 278 278 278 278 278 278 277 277 280 282 283 283 281 278 276 276 276 276 276 276 276 275 275 275 275 275 275 274 275 276 277 277 277 276 276 275 275 275 276 275 275 274 274 274 273 273 273 273 272 271 271 271 270 269 268 268 269 269 269 269 270
290 290 289 289 289 288 287 286 285 285 285 285 284 284 283 282 282 281 280 280 279 279 278 278 277 277 277 277 277 277 277 277 279 282 283 283 281 279 277 276 276 276 276 276 275 275 275 274 275 275 276 275 276 277 277 277 277 276 275 275 275 276 276 275 274 274 274 274 273 273 272 271 271 270 270 269 268 268 268 268 268 269 269 269 270
290 290 289 289 289 289 288 286 285 285 284 284 283 283 282 281 281 280 280 279 278 278 277 277 276 276 276 276 276 276 276 277 278 281 283 283 282 280 278 277 277 277 276 275 275 275 274 274 274 275 277 277 277 277 277 277 277 276 276 276 276 276 275 275 274 274 273 273 272 271 271 270 270 269 268 268 267 268 268 268 268 269 269 269 270
289 289 289 289 289 289 288 287 285 284 284 283 282 282 281 280 280 279 279 278 277 277 276 276 276 275 275 275 275 275 275 276 277 280 282 283 283 281 279 278 277 277 276 275 275 274 274 274 274 275 277 278 277 277 277 277 277 276 276 276 275 275 274 274 273 273 272 271 270 269 269 269 268 267 267 267 267 268 268 268 268 268 269 269 269
288 288 288 289 289 289 288 287 286 284 283 282 282 281 280 279 279 278 278 277 277 276 276 275 275 275 274 274 274 274 275 275 276 279 282 283 283 281 280 279 278 277 276 275 275 274 274 274 274 276 277 276 276 276 276 276 276 276 275 274 274 273 273 272 272 271 270 269 268 268 268 268 267 266 267 267 267 267 267 268 268 268 268 268 268
288 288 288 288 288 288 287 287 286 284 283 282 281 281 280 279 278 277 277 277 276 276 276 275 275 275 274 273 273 273 274 274 276 278 281 283 283 282 280 279 278 277 276 275 275 274 274 275 275 275 275 275 275 276 276 276 275 274 273 273 272 272 271 270 270 269 268 268 267 267 267 267 266 266 266 266 267 267 267 267 267 267 268 268 268
287 287 287 287 287 287 286 285 285 284 283 282 281 281 280 278 277 277 276 276 276 276 276 275 275 275 274 273 273 273 273 274 275 278 280 282 283 282 280 279 278 277 275 275 275 275 275 275 275 275 275 275 275 275 274 274 273 272 271 271 271 270 270 269 269 268 267 267 266 265 266 266 266 266 266 266 266 266 266 266 267 267 267 268 268
284 285 285 286 286 286 285 284 284 283 282 281 280 280 279 278 277 277 276 276 276 276 276 274 274 274 274 272 272 272 272 273 274 277 279 281 282 282 280 279 278 277 275 275 275 275 275 275 275 274 274 274 274 273 273 272 271 271 270 270 270 269 269 269 268 267 266 266 265 265 265 265 265 265 265 265 265 266 266 266 267 267 268 268 268
281 282 283 284 285 285 284 284 283 282 281 280 279 279 279 278 277 277 277 276 276 276 276 274 274 274 274 273 272 272 272 273 274 276 278 280 281 281 280 278 278 277 275 275 275 275 275 275 274 273 273 273 272 272 271 271 270 270 270 269 269 269 269 268 268 267 266 265 265 265 265 264 264 264 265 265 265 266 266 266 267 267 268 268 269
277 278 279 281 283 283 283 283 282 281 280 279 279 279 279 278 277 277 277 277 277 277 277 275 274 275 274 273 272 272 272 273 273 275 277 279 280 280 279 278 278 276 275 275 275 274 274 273 273 272 272 271 271 270 270 269 269 269 269 269 269 269 269 268 268 267 266 265 264 264 264 264 264 264 264 265 265 266 266 267 267 267 268 268 269
275 275 276 278 280 282 282 281 281 280 280 279 278 278 278 278 277 277 277 277 277 277 277 276 275 275 275 274 274 273 273 273 274 275 276 278 279 280 279 278 277 276 275 275 274 273 272 272 271 271 271 270 269 269 269 269 268 269 269 269 269 269 268 268 268 267 266 264 263 263 263 263 263 264 264 265 265 266 266 267 267 267 268 269 269
274 275 276 277 279 280 281 281 280 279 279 278 278 277 277 277 277 277 277 277 276 276 277 277 276 275 275 275 274 274 274 274 274 275 277 278 279 280 279 278 277 276 275 274 273 272 271 270 270 270 270 269 269 269 268 268 268 268 268 268 268 268 268 268 267 266 264 264 263 263 263 263 263 264 264 265 265 266 266 267 267 268 268 269 269
272 273 274 275 276 278 279 280 279 279 278 277 277 277 276 276 276 276 277 277 276 276 277 277 277 276 276 275 275 274 275 275 275 276 277 278 279 279 278 278 277 276 275 274 272 271 270 269 268 268 269 268 268 268 268 268 268 268 268 268 268 268 268 267 266 265 264 263 262 262 263 263 263 264 264 265 265 266 266 267 267 268 269 269 269
270 271 272 273 274 276 278 279 279 278 277 277 276 276 276 276 276 275 276 277 277 277 277 278 278 277 277 276 275 275 275 275 276 276 277 278 279 279 278 277 277 276 275 273 271 269 269 268 268 268 268 268 268 268 268 268 268 268 268 268 268 268 267 267 266 265 265 263 262 262 263 263 264 264 264 265 265 266 266 267 267 268 269 269 269
268 269 270 271 273 274 276 278 278 278 277 277 276 276 275 276 276 275 275 275 276 277 277 277 278 278 278 277 277 276 275 276 277 277 278 278 279 279 278 277 277 277 275 272 270 269 268 267 268 268 268 268 268 268 268 267 267 267 267 267 267 267 267 267 266 265 265 264 263 263 263 263 264 264 264 265 265 266 266 267 268 268 269 269 269
268 269 271 272 273 274 276 277 278 278 277 276 276 276 275 275 275 275 275 275 275 276 276 277 278 278 278 278 278 277 276 276 277 278 278 278 278 278 278 277 277 276 274 271 270 269 268 268 268 268 268 268 268 267 267 267 267 267 267 267 267 266 266 266 265 264 263 263 263 263 263 263 264 264 264 264 265 266 266 267 268 268 269 269 269
269 270 271 272 273 274 275 277 278 278 277 276 276 275 275 275 275 274 274 275 275 275 276 276 277 278 278 278 278 277 277 277 278 278 278 278 278 278 277 276 275 273 272 270 270 269 269 268 268 268 268 268 267 267 267 267 267 266 266 266 266 266 266 265 264 263 262 262 262 262 263 263 264 264 264 264 265 266 267 268 268 269 269 269 269
268 269 270 271 272 273 274 275 277 278 277 276 275 275 275 274 274 274 274 274 275 275 276 276 277 277 278 278 277 277 277 277 278 279 278 278 278 277 276 275 274 271 270 269 269 269 269 269 269 268 268 267 267 267 266 266 266 266 266 266 265 265 265 264 263 262 261 262 263 263 263 263 264 264 264 265 265 266 267 268 268 269 269 269 268
269 270 270 271 272 273 274 275 276 277 277 276 275 274 274 274 274 274 274 274 275 275 276 276 277 277 277 277 277 277 277 278 278 278 278 278 278 277 275 274 272 270 269 269 269 269 269 268 268 268 267 267 266 266 266 266 266 266 266 265 265 265 264 263 263 262 263 263 263 263 263 263 263 264 264 265 266 267 267 268 268 269 269 268 268
269 270 270 271 272 273 274 276 277 277 276 275 274 273 273 273 273 273 274 274 275 275 275 276 276 277 277 276 277 277 278 278 278 278 278 278 277 275 273 272 270 269 268 269 269 269 268 268 268 267 267 266 266 266 266 266 266 266 265 265 265 265 264 264 263 264 264 263 263 263 263 263 263 264 264 265 266 267 268 268 269 269 268 268 267
268 269 270 270 271 272 274 275 277 276 275 274 274 273 273 273 273 273 274 274 274 275 275 276 276 276 276 276 277 277 278 278 278 278 277 275 273 272 271 270 269 268 269 269 269 269 268 268 267 267 266 266 266 266 266 266 266 265 265 265 265 265 264 264 264 264 263 263 263 263 264 264 264 264 265 266 267 267 268 268 269 268 268 267 267
267 268 269 271 272 273 274 275 276 276 275 274 273 273 273 273 273 273 274 274 274 275 275 275 276 276 276 276 277 278 278 278 277 275 273 271 270 270 270 269 269 269 270 269 269 269 268 267 267 266 266 266 266 266 266 266 265 265 265 265 264 264 264 264 264 263 263 263 263 264 264 264 264 264 265 266 266 267 268 268 268 268 267 267 267
265 266 267 269 271 273 275 276 276 275 274 274 273 273 273 273 273 273 274 274 274 275 275 275 275 275 276 276 277 278 277 275 273 271 270 269 269 269 269 269 269 270 270 269 269 268 267 267 266 266 266 266 266 265 265 265 265 265 265 264 264 264 264 264 264 263 263 263 264 264 264 264 264 264 265 265 266 267 268 268 268 267 267 267 267
264 264 266 267 269 271 274 276 276 274 273 273 273 273 273 273 273 273 274 274 274 274 274 274 274 274 276 277 278 276 274 272 270 269 268 268 268 268 268 269 270 270 269 269 268 267 267 266 266 266 265 265 265 265 265 265 265 265 265 264 264 264 264 264 264 263 263 263 264 265 265 264 264 264 264 265 266 267 268 268 268 267 267 267 267
263 264 265 267 269 271 273 275 275 274 273 273 273 272 273 273 273 273 273 273 273 274 274 273 273 274 276 276 275 273 270 269 268 267 267 267 268 268 269 269 269 269 268 268 267 266 266 266 265 265 265 265 265 265 265 265 265 265 265 264 264 264 264 264 264 264 264 264 265 265 265 265 264 264 264 265 267 268 268 268 267 267 267 266 266
264 265 266 267 269 271 273 274 274 273 272 272 272 272 272 272 273 273 273 273 273 273 272 272 273 274 274 272 270 269 268 267 266 266 266 267 268 268 269 268 268 267 267 267 266 266 266 265 265 265 265 265 265 265 264 264 264 264 264 264 264 264 264 264 264 264 264 265 265 265 265 265 264 264 265 266 267 268 267 267 267 267 266 266 266
265 266 266 268 270 272 273 273 273 272 272 271 271 271 272 272 272 272 272 272 271 271 271 271 272 272 270 268 267 267 266 265 266 266 266 267 267 268 267 267 266 266 266 266 266 266 265 265 265 265 264 264 264 264 264 264 264 264 264 264 264 264 264 264 264 265 265 266 266 265 265 265 264 264 265 267 268 267 267 267 267 267 266 266 266
266 267 267 269 270 272 272 271 271 271 271 271 271 271 271 271 271 271 270 270 270 270 270 270 270 268 267 266 266 265 265 265 265 266 266 267 267 267 266 266 265 265 265 265 265 265 265 265 265 264 264 264 264 264 264 264 264 264 264 264 264 264 264 265 265 265 266 266 266 266 265 265 265 265 266 267 267 267 267 267 267 266 266 266 265
268 268 269 270 270 270 270 270 270 270 270 270 270 269 269 269 269 269 268 268 268 269 268 267 266 265 265 264 264 264 264 265 265 266 266 267 266 266 265 265 265 265 265 265 265 265 265 264 264 264 264 264 264 264 264 264 264 264 264 264 264 264 264 264 265 265 266 266 266 266 266 266 266 267 267 267 267 267 267 267 266 266 266 265 265
268 268 269 269 269 269 269 269 269 269 268 268 268 268 267 267 267 267 267 267 267 267 266 265 264 264 263 263 262 263 264 265 266 266 266 266 265 265 265 265 265 265 265 265 265 264 264 264 264 264 264 264 264 264 264 264 264 263 263 263 264 264 264 264 265 265 266 266 266 266 266 266 267 267 267 267 267 267 267 266 266 265 265 265 265
266 267 267 267 267 267 267 267 267 267 267 267 266 266 266 265 265 265 265 266 266 265 264 263 263 263 263 263 263 264 265 266 266 266 265 265 265 264 264 264 264 264 264 264 264 264 264 264 264 264 264 264 264 264 264 264 263 263 263 263 264 264 264 265 265 265 266 266 266 266 267 267 268 267 267 267 267 267 267 266 265 265 265 265 265
265 265 265 266 266 266 266 266 266 265 265 265 265 265 264 264 264 264 265 265 264 264 263 263 262 262 263 263 263 263 265 266 266 265 265 264 264 264 264 264 264 264 264 264 264 263 263 264 264 264 264 264 264 264 264 264 263 263 263 264 264 264 264 264 264 265 266 266 267 267 268 268 268 267 267 267 267 267 266 266 265 265 265 264 264
Wind_Speed
35 38 40 41 42 43 43 45 46 46 43 42 42 43 43 43 44 43 42 43 44 44 44 45 45 46 45 45 45 45 46 47 47 47 46 44 43 41 40 39 37 34 32 30 29 28 27 27 25 24 22 21 20 19 17 16 15 15 15 15 16 17 17 16 11 12 21 25 23 23 19 16 18 21 23 25 27 29 30 31 30 31 32 33 34
38 40 41 41 44 45 45 44 44 43 42 42 43 43 43 44 45 44 43 44 45 45 45 45 45 45 45 45 45 45 45 46 46 46 46 45 43 42 41 40 38 35 33 32 31 30 29 28 26 24 23 21 20 19 18 17 16 16 16 16 17 18 18 18 16 13 17 22 22 21 18 14 15 18 21 24 26 28 30 31 31 31 32 33 35
40 40 40 42 44 44 43 43 42 41 42 43 44 45 46 46 45 44 45 44 44 45 46 46 45 45 46 45 45 45 45 45 46 46 47 46 45 43 42 41 40 38 36 35 33 32 30 29 28 26 24 22 20 19 17 17 16 16 17 17 17 18 17 18 19 17 17 20 20 19 17 14 15 18 21 24 25 26 29 31 31 31 33 34 35
37 37 39 42 41 40 41 41 41 42 43 44 46 48 47 46 45 45 45 44 44 45 46 45 45 45 46 46 46 46 46 46 45 45 46 45 45 44 43 42 41 39 38 36 35 34 32 31 29 27 25 23 21 20 18 17 17 17 17 16 16 17 16 17 19 19 19 20 20 19 18 18 17 18 22 25 25 26 28 30 31 32 32 31 32
36 36 38 39 37 38 39 39 40 43 44 45 47 48 47 45 45 44 44 44 44 45 45 45 45 46 47 48 47 47 46 46 46 45 45 44 43 43 43 42 41 40 38 36 35 34 33 32 30 28 26 24 22 21 20 18 18 17 16 16 15 15 15 15 17 19 20 21 22 21 20 20 19 19 19 22 26 28 30 29 30 30 28 28 28
33 35 36 36 37 38 39 39 41 43 45 47 47 47 45 44 43 43 44 44 44 44 44 45 46 47 48 48 48 47 47 47 46 46 44 43 42 42 42 41 40 39 37 36 35 33 32 31 30 28 27 25 24 22 21 19 18 17 16 15 14 13 14 15 16 17 20 21 22 21 20 21 22 20 18 19 24 29 31 30 26 25 26 27 28
33 34 35 37 38 39 40 41 42 44 46 45 44 42 41 41 41 41 42 43 43 43 43 45 47 48 48 47 47 48 47 47 47 46 45 44 43 42 41 40 39 38 36 35 34 32 32 31 29 28 27 26 24 22 21 20 18 17 16 14 13 12 14 15 15 16 18 19 19 20 20 21 22 21 19 19 20 23 26 29 27 24 25 28 30
34 34 35 35 38 39 40 42 44 45 44 41 38 38 39 40 41 41 41 42 44 44 45 46 46 46 46 47 47 47 47 47 47 47 46 45 45 43 42 40 39 37 35 34 33 32 31 30 29 28 27 25 23 21 20 19 18 17 15 13 12 12 14 14 14 15 16 17 18 19 20 20 20 19 19 18 18 19 21 27 30 29 30 31 30
33 34 34 35 39 40 40 41 42 41 39 37 37 39 40 41 41 42 43 44 45 45 45 45 45 44 45 46 46 46 47 48 49 49 48 46 45 44 42 41 39 37 35 33 32 32 31 30 28 27 26 24 21 19 18 17 17 16 14 12 12 13 14 14 14 15 15 15 16 17 17 17 18 19 18 18 19 22 24 26 30 31 34 36 33
32 32 34 37 40 39 37 37 36 35 35 37 38 39 40 40 41 43 44 45 44 44 43 43 44 45 44 44 44 46 47 47 49 51 51 49 46 44 42 40 39 38 36 34 33 32 31 30 28 26 24 21 19 17 16 14 14 12 11 11 12 13 13 14 15 15 14 13 14 15 16 17 18 19 20 20 21 23 25 26 29 33 33 32 31
31 31 34 39 38 35 33 33 32 32 34 36 36 37 38 39 41 42 42 42 42 42 42 43 45 44 44 45 45 46 46 47 48 50 50 49 47 44 43 41 39 38 37 36 35 33 31 29 27 24 22 20 18 16 15 14 13 12 12 12 12 12 12 13 14 14 14 13 14 16 17 19 21 20 21 21 22 24 27 26 27 30 28 23 24
28 30 33 34 33 30 29 29 30 32 34 35 36 37 37 38 39 40 40 41 41 41 43 44 44 43 43 44 45 45 45 46 48 48 48 48 47 45 43 41 40 38 37 36 35 33 31 28 26 24 22 20 19 17 16 16 15 15 15 15 14 14 14 15 16 16 15 15 15 16 18 21 23 21 20 21 24 28 27 24 23 26 28 25 24
29 29 30 29 27 26 26 26 29 32 33 34 35 35 36 37 39 39 40 40 40 41 42 42 42 42 43 43 44 45 45 45 46 47 47 47 46 45 43 42 40 38 37 36 34 32 30 28 26 25 23 21 19 18 19 19 17 16 16 15 15 15 14 15 17 17 17 18 18 18 19 21 21 22 22 24 27 28 27 26 25 25 27 26 27
32 30 29 28 26 25 25 26 28 30 30 31 31 33 35 37 38 38 38 38 39 40 41 41 42 43 44 44 43 43 43 43 44 45 45 45 45 44 42 40 39 38 37 35 32 31 31 29 27 25 23 22 20 19 20 21 19 18 17 16 16 15 14 15 16 17 18 19 20 20 20 21 24 27 28 25 23 25 27 29 26 24 27 31 35
33 31 30 29 26 24 24 25 27 27 25 26 29 31 34 34 34 35 36 38 40 40 40 40 41 41 42 42 41 40 41 42 43 43 43 42 42 43 42 40 38 36 34 32 31 31 31 30 28 26 24 23 22 21 21 22 21 19 18 16 14 13 14 15 15 16 17 17 20 23 24 25 28 28 26 24 24 26 28 30 30 33 38 39 40
32 32 31 31 28 25 23 24 26 24 23 24 27 29 30 31 32 33 34 35 36 36 36 38 38 39 39 40 39 38 39 41 42 42 40 40 41 41 40 38 36 34 32 31 32 32 31 29 28 26 25 24 23 21 22 22 21 18 16 13 12 12 14 15 15 16 18 20 22 24 24 25 25 25 26 27 28 29 30 34 37 38 37 34 32
31 32 32 32 29 26 23 23 24 24 23 24 27 28 29 29 30 31 31 31 32 33 34 35 36 37 38 39 39 37 37 40 41 40 38 38 39 40 39 36 34 32 31 31 32 32 31 30 29 27 26 25 23 21 21 21 19 17 15 13 12 14 15 16 16 17 18 19 19 21 22 23 24 25 26 26 25 27 31 34 34 31 27 21 20
31 32 33 33 30 26 23 22 23 23 23 25 27 27 27 28 29 31 32 32 32 32 33 32 33 35 37 38 38 37 38 40 40 38 37 38 40 41 40 36 34 32 30 30 31 31 30 29 28 29 28 26 24 22 22 22 20 18 16 14 13 15 17 16 15 15 15 17 19 21 22 23 23 24 25 27 28 28 29 31 31 28 24 19 18
31 32 33 33 30 26 23 21 22 23 24 26 26 26 27 28 28 30 31 32 31 32 32 31 31 33 35 37 38 37 38 40 39 37 37 37 39 41 40 37 34 33 31 30 29 29 28 27 26 27 27 25 23 23 22 22 21 19 17 14 14 15 15 13 14 16 19 21 22 22 22 22 25 27 30 34 35 31 28 29 28 27 25 25 24
33 34 34 32 30 27 23 21 22 23 24 26 25 25 26 26 28 29 30 31 30 30 31 31 31 32 33 35 37 37 38 40 39 37 38 38 39 41 41 38 36 34 33 32 30 29 29 26 24 24 25 24 23 23 22 22 21 19 17 16 15 16 14 14 17 18 19 20 19 20 23 26 30 33 35 36 34 29 25 24 24 26 27 30 30
36 36 36 34 32 28 24 22 21 22 23 24 23 24 25 26 28 29 30 29 28 28 29 29 29 30 31 34 36 36 37 40 40 38 38 38 39 41 42 39 37 37 34 32 31 31 32 29 26 25 25 23 23 23 22 20 18 17 17 16 15 15 14 15 17 17 18 20 21 24 28 31 33 34 33 31 28 25 25 24 24 26 26 29 31
36 37 36 36 34 30 26 23 21 20 21 21 21 23 24 25 27 28 28 28 27 27 26 27 27 27 28 31 34 35 36 40 42 40 39 40 40 41 42 40 38 38 36 32 31 32 33 31 28 26 26 25 23 21 20 18 16 15 14 13 12 11 12 14 16 17 19 22 25 28 30 31 31 30 28 27 26 25 26 25 24 24 25 28 31
35 36 36 35 34 32 29 25 21 19 19 19 21 22 22 23 25 26 26 25 24 24 24 24 24 24 24 26 29 32 33 36 40 40 40 41 40 40 42 41 38 38 38 34 33 34 32 29 26 24 24 24 21 19 17 16 14 12 11 10 9 9 12 15 17 18 21 23 24 27 28 27 27 26 25 25 25 25 25 24 25 27 30 34 37
34 34 34 33 33 33 30 26 23 20 19 19 20 21 21 22 23 24 24 23 22 21 22 23 23 22 23 25 27 30 30 31 35 38 38 40 39 36 37 39 36 36 36 34 33 33 30 26 24 22 21 20 18 16 15 13 11 10 8 7 7 10 13 16 18 19 21 22 22 24 26 25 24 24 25 25 25 25 26 25 27 30 34 38 41
33 32 32 31 32 32 30 27 24 21 20 20 21 22 22 22 22 23 24 23 22 21 21 23 24 23 25 27 28 30 31 31 32 33 33 37 39 34 32 35 34 34 34 32 31 31 27 23 22 20 19 18 16 15 15 13 11 9 6 6 10 13 15 16 17 17 19 19 20 22 24 25 24 25 25 25 24 26 28 29 31 33 35 39 42
32 31 30 30 31 30 28 27 25 22 21 22 23 24 24 24 23 23 24 24 24 23 22 25 26 24 27 31 30 30 33 34 34 34 32 34 37 34 31 33 32 30 31 30 28 26 24 22 21 20 18 18 18 17 16 15 13 10 9 10 13 14 14 15 15 15 17 18 19 22 24 25 26 26 26 25 25 27 29 31 34 35 35 36 40
33 32 30 30 30 28 27 26 24 23 22 23 24 24 25 26 25 24 25 25 25 23 23 28 30 25 25 29 29 29 32 33 33 36 37 36 36 34 32 32 30 28 28 28 26 25 24 21 19 19 20 19 19 17 16 14 13 12 11 12 13 12 12 12 13 14 16 18 19 22 25 26 26 27 26 26 27 29 29 29 33 35 36 35 36
33 33 33 32 30 28 27 26 24 23 23 24 26 26 26 27 28 29 30 30 28 25 25 31 35 29 27 31 31 28 30 32 32 34 37 36 35 33 32 32 31 29 29 28 27 27 25 22 20 21 21 20 18 16 15 14 12 12 12 11 11 10 11 11 12 14 16 18 20 23 25 26 26 27 27 27 28 29 28 29 31 34 37 34 30
33 34 34 33 31 29 27 25 25 24 24 25 27 29 30 31 32 33 34 35 34 32 28 32 36 33 30 35 37 32 30 35 37 37 36 35 34 33 33 34 32 31 32 32 31 29 27 25 24 23 21 19 17 15 14 13 12 12 12 11 10 10 10 11 12 14 15 17 20 22 24 25 26 26 26 27 29 29 28 28 30 33 35 32 28
32 32 32 31 30 29 26 25 25 25 24 24 25 28 30 32 33 33 33 34 36 35 31 30 35 36 33 35 40 39 36 37 38 37 35 35 34 32 32 35 35 34 34 35 33 31 28 26 24 23 21 20 18 17 16 15 14 13 12 11 10 9 9 10 12 13 14 17 19 22 23 24 25 26 26 27 30 31 30 30 31 32 32 30 28
27 28 28 28 29 28 26 24 24 24 25 25 24 23 24 27 30 32 31 29 30 33 31 27 29 35 35 33 34 36 33 30 32 34 35 35 35 32 31 33 35 35 36 36 34 30 28 25 23 23 22 20 19 19 18 17 16 14 12 11 9 8 9 10 11 12 14 17 20 21 22 23 24 25 25 26 30 33 34 33 32 30 31 30 29
26 27 29 30 31 30 28 26 24 24 24 24 23 22 19 18 21 25 27 26 25 27 30 27 25 28 32 31 31 31 28 27 31 36 36 36 36 34 32 34 35 33 33 34 31 27 26 25 23 23 23 21 20 20 19 17 16 13 12 11 10 9 9 10 11 13 15 18 20 21 22 23 23 24 25 26 29 32 33 32 31 30 32 32 31
31 31 32 31 30 29 27 26 24 23 23 22 21 21 20 16 14 16 20 24 24 24 27 28 26 25 28 30 31 31 30 29 33 37 38 37 38 36 33 34 34 32 31 32 28 25 25 25 24 24 24 23 21 20 18 17 15 12 11 11 10 9 10 10 11 14 15 16 19 20 21 23 23 24 25 26 27 29 30 30 32 32 30 30 31
35 35 35 34 31 28 26 25 24 23 23 23 22 22 22 21 18 15 14 15 17 20 24 27 28 28 27 29 31 31 30 31 35 38 39 39 38 37 34 34 33 31 31 31 29 26 25 25 24 25 25 23 21 20 18 16 14 12 11 10 10 10 10 10 11 13 15 16 18 20 21 22 23 23 25 26 26 28 28 29 31 31 29 28 30
34 35 35 34 31 27 26 26 25 24 23 23 23 23 22 22 20 18 16 14 13 16 20 24 28 29 28 28 30 31 32 34 35 38 39 39 39 38 35 32 30 28 29 29 29 27 27 26 25 25 25 23 21 19 17 15 13 11 10 9 9 10 10 11 12 13 14 16 17 19 20 22 23 23 24 25 26 27 28 30 31 31 31 30 30
33 32 32 31 28 26 26 27 25 25 25 24 24 24 23 22 21 21 20 19 17 16 17 20 24 27 27 28 29 30 33 35 36 37 38 39 40 39 35 30 27 27 29 30 29 28 28 27 26 25 24 23 20 18 16 14 12 10 9 9 9 9 9 11 12 13 14 15 17 19 21 22 23 24 24 24 25 26 28 30 32 33 32 31 31
34 33 33 32 30 27 28 29 28 27 26 25 24 23 23 22 22 21 20 19 19 18 17 18 20 22 24 27 29 30 33 35 37 37 38 38 39 38 34 31 31 31 31 31 30 28 27 27 26 25 24 22 19 17 15 13 11 9 8 8 8 8 9 10 11 12 14 17 19 21 22 22 23 24 24 24 25 27 29 32 33 34 34 33 32
35 34 35 35 31 28 27 28 28 27 25 24 23 22 21 20 21 20 20 19 19 18 18 19 20 21 22 25 29 31 32 34 35 36 37 38 38 35 33 33 34 33 32 32 32 30 29 27 26 24 22 20 18 17 15 12 10 9 7 7 8 8 9 10 11 12 14 17 19 21 22 22 23 24 24 24 26 29 32 34 34 33 34 34 31
33 34 36 36 34 30 28 27 25 24 23 22 22 21 20 19 19 19 19 18 19 19 19 19 21 22 23 26 29 31 31 31 32 33 35 35 35 34 34 33 32 31 32 33 33 31 29 28 26 23 21 20 18 16 14 12 10 8 7 7 8 8 9 10 12 13 15 17 19 20 22 23 24 24 25 25 28 31 33 34 33 32 32 34 33
33 33 34 34 32 31 30 28 25 22 21 21 20 20 20 19 19 19 19 18 18 19 20 20 21 23 26 29 32 33 30 28 29 30 30 29 30 32 34 33 31 32 33 34 33 31 29 27 25 23 21 20 18 15 13 11 9 8 8 7 8 9 10 10 12 14 16 18 19 21 22 24 25 25 25 26 28 32 33 33 33 34 34 34 35
30 29 29 29 29 29 28 27 25 22 20 21 21 20 21 21 21 21 20 19 19 20 20 21 22 25 28 32 35 34 30 26 26 27 28 29 31 32 33 33 33 33 34 33 32 30 28 26 24 23 21 19 17 14 12 10 9 9 8 8 8 9 10 11 12 14 16 18 19 21 23 24 25 25 26 27 29 31 31 31 32 35 35 34 35
29 28 28 28 28 27 25 24 23 22 21 21 21 21 21 21 21 21 21 20 20 20 19 20 22 24 28 33 36 33 27 25 26 28 29 31 33 33 32 33 33 33 32 31 30 28 26 24 23 22 20 18 15 13 12 11 10 9 8 8 8 9 10 12 13 15 16 17 20 21 23 25 26 27 29 32 32 30 29 31 33 34 34 35 36
29 28 27 26 26 26 24 21 19 20 20 20 21 22 22 22 21 22 21 20 20 20 19 19 20 23 27 32 33 30 27 27 29 29 30 31 32 33 33 32 31 29 29 28 26 25 24 22 21 19 17 15 13 12 11 10 9 9 8 8 8 9 11 12 14 14 15 18 20 22 24 27 29 31 33 34 31 28 29 32 34 34 34 35 36
27 25 25 24 24 25 24 21 18 19 21 21 21 22 22 21 21 21 20 19 19 20 20 20 22 24 26 27 29 29 29 29 29 29 30 31 32 32 32 30 28 27 26 25 24 23 22 20 19 17 15 13 11 10 9 8 8 8 8 8 8 10 11 13 14 14 16 18 20 23 26 30 32 34 36 33 29 28 31 32 33 34 35 35 35
25 24 24 23 22 22 22 20 19 19 19 19 18 18 19 20 19 19 19 19 19 20 20 22 24 25 23 24 27 29 29 29 29 30 30 31 31 31 30 28 27 26 25 24 23 22 20 19 17 15 13 11 10 8 6 6 7 7 7 8 9 10 12 12 13 14 15 18 21 24 28 31 35 38 37 31 27 29 32 32 32 34 35 35 33
25 23 22 21 21 20 18 18 17 17 16 16 15 15 16 17 17 18 19 19 19 20 21 23 24 22 21 24 27 29 29 30 31 31 30 30 30 29 28 27 25 25 24 23 22 21 19 17 15 13 11 10 8 6 5 5 6 6 7 8 10 11 11 12 12 13 14 16 21 25 28 32 38 39 34 29 29 32 32 31 32 34 35 35 34
25 22 21 20 19 16 14 14 15 15 14 14 14 14 14 14 15 16 17 18 20 22 22 22 21 22 23 25 27 28 30 31 32 31 31 30 29 28 27 26 25 24 23 22 21 19 17 15 13 11 10 8 6 5 5 5 5 6 7 8 10 11 11 11 12 13 14 16 20 25 29 34 37 35 29 28 31 32 30 30 33 34 35 35 34
18 17 17 15 13 11 11 12 13 13 13 13 13 14 14 15 16 17 18 20 22 22 21 21 22 24 25 25 27 29 31 32 31 31 31 30 29 28 27 26 24 23 22 20 18 16 14 13 11 9 7 6 5 5 4 5 6 6 7 9 10 10 10 11 12 13 14 17 20 25 30 32 31 29 27 30 32 31 30 31 33 35 35 35 34
3 2 5 7 9 10 12 12 13 13 14 15 15 15 16 17 17 18 19 21 21 21 22 23 25 26 26 27 28 30 32 32 32 31 30 29 28 27 26 25 23 22 20 18 16 14 13 11 9 7 6 5 5 5 5 6 7 7 8 9 9 9 10 11 11 12 14 18 22 27 29 29 27 26 29 32 31 30 30 31 33 35 35 34 33
11 10 10 11 12 12 13 14 14 15 15 16 16 16 17 17 17 18 20 21 20 20 21 23 25 27 29 31 31 32 32 32 31 30 29 29 28 27 25 24 22 20 18 16 15 13 11 9 7 6 5 4 5 5 6 7 8 9 9 9 10 10 9 10 10 12 14 18 24 28 28 27 26 28 31 31 30 29 30 32 33 34 34 33 33
16 15 15 15 15 15 15 15 15 15 16 17 17 16 17 17 17 18 20 21 20 21 22 23 25 27 30 32 32 32 32 31 30 29 29 28 27 26 24 22 20 19 17 15 13 11 10 8 6 5 5 5 5 6 8 8 9 9 10 10 10 10 10 10 13 14 15 19 24 27 26 25 27 30 31 31 29 29 30 32 33 34 33 32 32
Wind_Direction
221 222 222 222 222 221 220 220 220 220 220 219 219 221 221 220 220 220 218 218 217 216 215 215 213 212 212 211 210 209 208 207 207 206 205 206 207 208 207 206 206 206 205 204 205 207 208 209 210 208 205 203 203 204 206 209 213 217 222 226 229 233 233 234 244 267 269 271 278 283 283 281 288 300 307 311 316 321 322 323 321 319 317 316 315
225 225 225 224 225 224 222 221 220 220 219 219 220 220 221 221 221 218 217 217 216 215 215 214 213 212 211 211 211 210 209 207 206 205 204 205 205 206 206 205 205 204 203 204 204 205 207 209 209 207 205 205 205 206 207 209 213 219 223 226 232 235 234 237 246 263 275 278 283 288 288 286 292 303 310 311 315 320 321 319 318 317 315 314 312
229 228 226 227 227 226 225 222 219 218 218 219 220 220 221 221 220 218 217 216 215 215 215 213 212 211 210 211 210 210 209 208 207 206 205 205 204 205 205 205 204 204 203 204 204 204 204 206 208 206 204 204 205 207 210 213 216 221 225 227 232 238 239 241 246 256 273 283 287 292 296 297 299 305 311 312 315 317 315 314 314 313 313 312 310
235 232 230 231 230 228 227 224 220 217 217 219 220 221 221 220 219 218 216 215 214 214 214 212 210 209 209 210 210 210 209 208 207 206 206 206 205 205 205 205 205 205 205 205 204 204 204 205 207 206 204 204 206 208 210 214 218 222 226 229 232 240 244 245 248 254 268 281 286 291 298 300 300 306 314 317 317 314 311 310 310 310 310 311 308
241 237 234 234 232 231 229 226 222 219 217 219 221 221 220 219 218 217 215 214 214 213 211 209 208 208 209 210 209 209 209 208 207 207 206 206 206 206 206 206 206 207 207 206 205 205 206 207 207 206 205 205 206 209 211 214 219 221 225 230 233 239 246 249 253 258 264 273 283 292 299 302 304 309 315 318 316 314 311 310 311 312 312 312 310
249 243 237 234 232 231 229 227 225 223 220 220 221 221 220 218 217 215 214 213 213 211 209 207 207 208 210 210 209 208 208 208 207 207 206 206 206 208 208 207 207 207 207 207 207 207 207 208 209 208 208 209 209 210 213 214 217 220 224 228 232 238 245 251 258 263 265 272 283 292 299 305 309 310 313 316 316 314 314 313 314 315 314 313 312
257 248 240 235 233 231 229 227 226 226 224 222 221 221 219 218 217 215 214 213 212 210 209 208 208 209 209 209 209 208 207 207 207 206 206 206 206 207 208 207 206 206 207 207 206 207 209 209 211 211 211 213 213 213 213 214 215 219 223 225 227 234 244 254 261 266 270 277 285 294 302 308 309 307 310 317 317 315 316 316 315 316 315 312 310
261 253 244 238 236 235 231 228 227 227 226 223 221 220 218 217 217 216 214 213 213 211 210 209 209 209 208 208 208 208 207 206 205 205 205 206 205 206 206 206 205 205 205 205 206 207 208 210 212 213 214 215 216 216 216 215 214 216 220 221 223 232 245 256 263 268 275 282 290 298 303 305 305 307 314 322 321 318 319 316 311 311 314 310 307
261 253 246 242 241 240 235 231 228 227 225 222 219 218 217 217 215 215 215 214 214 213 211 210 208 207 207 207 207 206 206 206 205 204 204 204 204 204 204 204 204 203 201 202 204 205 207 209 211 214 215 215 216 218 219 219 217 215 214 214 222 234 246 256 262 269 277 285 292 298 300 300 305 311 316 321 319 316 317 314 307 308 313 310 306
263 253 246 246 246 243 236 231 228 226 224 222 220 217 216 215 214 214 214 214 213 211 210 208 208 207 206 205 205 205 205 206 206 206 206 205 203 202 202 202 202 202 200 199 200 203 206 209 211 213 215 214 214 216 215 214 216 217 213 216 226 235 243 253 260 268 276 283 289 297 300 299 303 309 310 312 314 314 314 314 309 308 311 310 308
270 257 250 250 249 243 236 231 227 226 224 222 220 217 215 214 214 214 213 211 211 209 208 207 207 207 205 204 204 204 205 206 206 206 206 205 203 201 200 200 200 200 200 199 199 201 203 206 208 209 210 210 209 207 204 203 205 210 216 223 231 237 243 252 259 267 273 276 283 291 293 295 300 304 305 308 312 312 310 307 305 307 310 310 307
281 266 260 257 253 246 240 234 228 226 224 222 220 217 215 214 213 212 210 209 208 207 207 207 206 205 204 204 204 204 205 206 206 205 205 204 204 202 199 198 197 198 200 200 200 200 200 202 204 204 205 205 202 197 195 198 203 210 218 225 232 240 248 254 261 268 274 277 282 285 286 292 297 299 302 308 310 307 305 303 301 303 302 299 299
306 288 281 276 268 260 252 242 234 229 225 222 220 216 213 213 211 210 209 208 207 206 206 206 205 204 203 203 204 205 205 205 204 204 204 204 203 202 200 198 197 198 199 200 199 198 197 196 198 201 202 199 197 195 193 195 200 208 215 221 228 237 247 254 260 266 271 276 279 279 281 287 292 293 299 306 306 303 303 301 299 297 295 294 297
327 312 302 294 284 274 262 250 242 237 230 224 220 215 213 213 211 210 208 206 205 205 205 205 204 204 204 203 204 204 204 203 202 202 202 202 201 201 200 199 198 198 199 198 196 196 196 195 194 197 197 193 193 193 192 193 196 201 207 214 221 231 243 253 260 264 266 269 271 274 277 281 284 289 294 297 297 297 299 299 301 302 298 297 298
339 331 321 310 299 284 270 259 251 245 237 228 221 217 215 213 211 209 207 205 206 205 205 204 203 203 203 202 202 203 203 201 200 200 199 197 199 200 199 197 196 195 196 195 194 195 196 196 195 195 195 194 193 192 193 194 198 202 206 212 221 234 247 256 261 263 265 266 268 273 278 281 283 287 291 295 296 295 296 297 301 304 303 300 298
345 341 333 324 313 296 280 267 258 252 243 232 224 219 217 214 211 209 207 207 207 206 205 204 203 202 202 201 201 201 201 199 198 197 195 193 196 197 195 193 192 191 192 192 194 196 197 197 196 195 195 196 193 191 193 195 196 200 205 212 225 240 250 255 258 262 267 271 273 276 280 283 285 287 291 295 296 297 300 300 300 302 302 300 297
345 343 338 332 323 308 290 274 263 256 246 234 226 222 218 215 212 208 206 205 205 205 205 204 203 202 201 200 200 200 199 197 196 195 190 188 191 192 190 189 188 188 190 192 194 196 196 197 196 194 195 196 193 189 189 192 193 197 204 212 224 239 250 258 264 267 269 271 273 277 281 285 287 289 290 291 293 299 303 301 298 300 301 297 295
341 340 338 335 330 317 301 282 267 257 247 237 230 225 220 216 213 209 206 205 204 205 205 203 203 203 201 201 201 200 199 197 195 192 188 187 191 191 187 185 185 186 187 189 192 195 195 197 197 197 197 197 193 188 188 192 195 197 203 208 221 240 253 261 265 265 267 272 278 282 283 284 284 283 283 284 289 295 294 290 290 293 291 284 285
336 335 335 335 332 323 310 291 273 260 250 242 235 228 222 217 213 210 208 206 205 204 203 201 202 202 203 203 202 201 201 197 194 192 187 187 192 190 185 183 183 184 185 186 188 192 193 194 196 200 202 198 192 190 190 193 196 197 199 204 219 237 247 252 257 265 273 278 282 282 278 277 279 281 283 285 288 291 287 283 284 285 282 280 282
331 331 331 333 332 326 315 298 281 268 257 248 240 232 225 218 213 209 207 206 204 202 201 200 200 201 202 203 202 203 202 197 194 192 189 189 192 191 187 184 183 182 183 183 185 188 190 192 193 198 200 195 191 191 192 194 195 196 199 206 218 231 241 251 259 267 272 272 271 272 274 279 283 286 289 291 292 294 291 285 282 279 277 279 280
328 328 329 330 330 326 318 304 289 276 263 252 242 232 224 218 213 208 204 202 201 200 200 199 199 200 201 203 203 203 203 200 196 194 192 192 192 192 190 188 185 183 183 184 186 188 190 192 193 194 195 193 192 194 195 195 194 195 201 209 221 232 243 256 261 260 260 262 267 274 279 284 287 289 292 294 295 296 293 287 283 279 275 275 279
324 324 324 325 325 323 318 308 295 280 266 251 239 230 222 217 213 208 203 201 199 199 198 197 198 200 201 204 204 204 205 204 199 196 195 194 195 194 192 191 189 185 183 184 187 190 193 195 194 193 194 195 195 196 197 195 192 196 206 214 223 234 241 250 255 256 260 267 274 279 282 285 288 291 294 295 295 297 295 290 286 280 274 272 276
321 320 320 320 319 318 314 308 297 281 265 250 237 229 222 216 212 207 204 202 199 197 197 195 197 198 199 203 206 205 206 205 202 198 197 197 197 195 193 193 192 188 186 186 188 190 193 194 193 190 190 193 195 195 194 192 192 200 211 215 223 236 242 247 254 261 268 274 278 281 284 287 290 292 293 293 295 296 294 290 286 283 280 278 277
317 316 315 315 314 312 309 304 294 280 265 249 235 228 222 215 211 207 204 203 201 200 197 194 194 197 198 200 203 204 204 204 203 201 199 199 199 195 192 192 193 191 190 188 188 189 189 189 186 183 184 188 191 191 191 191 196 203 207 212 225 237 243 251 260 267 272 276 279 282 286 289 290 290 290 293 295 295 292 289 288 287 285 284 283
313 311 311 310 309 307 304 298 289 277 263 246 232 226 221 214 210 207 205 204 205 205 201 197 197 199 198 195 196 199 200 201 202 202 201 202 201 195 190 190 192 192 191 189 188 188 185 180 177 176 180 184 185 187 190 190 191 194 199 213 231 241 248 257 265 269 273 278 281 284 288 290 291 291 291 293 294 294 294 294 292 291 290 289 288
310 308 307 304 303 301 296 291 284 273 261 246 234 228 221 215 212 210 207 207 209 209 207 203 200 199 198 194 192 193 195 196 197 198 198 202 203 197 190 188 188 188 189 188 185 181 176 172 172 175 179 183 186 188 191 195 198 202 212 225 237 248 257 263 268 272 277 283 284 284 288 291 293 293 293 294 294 294 296 297 296 294 293 291 290
308 307 304 301 299 295 288 283 277 267 256 243 233 229 224 219 216 212 210 209 209 212 211 204 200 199 197 193 190 190 192 194 196 195 193 196 200 197 189 184 183 182 182 182 177 174 172 171 174 177 179 182 188 191 196 205 212 216 225 235 245 254 261 266 275 280 282 285 284 284 289 293 294 295 296 296 295 296 298 298 296 295 296 294 290
303 302 300 297 294 288 281 275 268 259 250 240 231 227 223 219 217 218 217 212 208 211 209 202 200 201 196 190 187 187 192 197 199 198 194 192 193 191 184 181 180 178 175 174 171 171 172 170 169 175 180 183 188 195 203 211 217 221 227 234 241 251 260 270 279 279 279 283 284 287 292 294 294 296 298 298 297 298 301 300 296 295 298 297 289
298 296 295 292 288 283 277 269 261 253 246 239 233 231 227 222 220 223 225 222 217 216 213 207 204 203 198 193 188 186 192 201 202 199 195 192 191 188 182 178 178 176 175 174 171 168 167 169 171 177 183 187 190 197 204 210 214 218 223 228 235 247 260 273 281 284 288 290 290 291 294 295 296 299 302 301 299 302 304 302 298 298 298 294 286
294 290 288 285 282 279 273 264 257 250 243 238 235 235 234 230 227 228 231 231 228 224 222 219 213 206 203 200 197 197 202 204 200 196 194 192 192 188 181 178 177 175 173 174 172 168 168 172 177 183 187 190 194 198 201 205 210 212 216 224 234 247 264 278 288 296 298 295 293 293 294 295 297 301 303 302 302 305 305 303 301 299 297 292 287
287 283 281 280 280 279 273 264 255 247 241 237 234 233 234 233 232 231 232 234 233 227 225 226 219 210 206 205 202 204 206 202 195 193 192 191 190 186 179 177 176 172 170 171 171 170 172 176 181 187 191 193 196 198 198 201 207 209 212 223 234 248 266 282 294 299 297 294 293 293 294 295 297 300 302 302 303 305 306 306 304 300 295 292 288
281 279 279 279 279 280 275 266 257 247 240 235 230 228 229 231 233 232 230 229 230 227 224 224 219 211 208 206 202 201 200 195 192 192 190 189 187 183 176 173 171 168 169 173 172 172 176 180 182 188 192 194 197 199 199 201 205 207 215 229 239 252 269 285 296 296 294 293 294 294 296 298 298 300 301 302 303 304 305 305 304 301 298 294 289
280 279 279 279 278 278 274 267 257 247 239 234 228 224 223 223 226 228 225 225 228 229 227 226 221 212 207 206 203 200 197 193 191 190 189 187 185 181 175 173 171 168 170 174 175 174 179 182 184 189 193 196 198 199 199 203 207 210 223 238 249 262 275 284 290 292 294 296 296 295 298 300 301 301 302 303 303 302 302 302 302 301 298 294 292
277 276 275 274 273 272 271 268 261 251 242 234 228 224 223 222 222 220 215 217 223 226 226 226 224 218 210 205 202 200 195 191 190 189 187 185 183 178 172 172 175 176 176 177 177 176 178 182 186 189 192 195 198 199 201 205 211 217 230 245 257 268 277 283 288 293 298 300 299 300 301 302 302 303 304 305 305 303 301 301 301 300 298 295 295
277 275 272 270 268 267 268 266 260 253 244 235 229 226 225 222 221 217 211 208 212 216 219 220 220 217 212 206 202 198 192 189 189 188 186 183 180 174 168 170 175 175 173 176 179 180 181 185 187 189 191 194 197 201 204 208 215 224 234 247 259 268 276 285 291 296 300 302 302 301 300 299 301 303 304 304 303 302 300 300 300 299 297 296 296
275 274 273 271 270 269 270 269 261 251 243 236 230 228 224 219 216 213 211 211 210 211 213 213 212 213 212 206 200 194 189 187 187 187 185 181 177 172 170 171 171 167 168 175 181 182 185 189 190 189 191 195 198 202 206 209 215 224 233 246 259 269 279 290 297 302 304 302 299 296 296 299 304 308 306 301 298 298 297 298 299 298 296 296 297
272 271 271 271 270 269 268 269 265 255 244 236 230 225 220 217 213 209 207 207 207 206 205 200 197 201 205 201 194 190 187 186 185 184 183 180 178 176 175 172 168 167 170 175 178 180 185 191 192 191 192 195 198 200 203 206 210 218 231 245 259 272 285 294 298 298 297 296 296 297 301 306 310 310 306 299 296 297 298 298 298 297 297 299 299
268 268 269 271 272 269 263 262 259 252 241 231 225 219 215 212 209 205 205 203 200 198 197 190 187 189 192 189 185 184 184 182 181 181 181 181 181 179 176 172 171 171 171 173 176 181 185 188 190 192 193 195 197 198 200 201 205 215 230 245 258 273 286 292 295 295 295 298 301 303 307 310 311 310 306 298 294 297 299 299 298 298 301 303 302
271 271 272 273 273 270 265 261 255 244 231 223 217 213 210 208 204 202 202 200 197 194 191 188 188 189 185 179 177 179 180 180 179 180 181 181 180 175 171 170 171 170 170 173 177 182 184 185 188 192 193 193 195 196 197 199 205 217 232 247 263 277 288 295 302 306 305 303 304 307 311 313 312 311 307 299 296 298 299 297 298 301 303 303 303
274 273 272 271 268 265 263 262 255 239 222 215 210 205 204 205 202 199 198 196 195 194 190 188 189 187 182 178 177 178 180 181 180 179 176 172 168 166 166 168 169 170 173 176 179 182 184 185 188 191 192 192 194 194 195 201 208 220 235 252 267 282 295 305 309 309 306 304 307 312 317 317 316 312 306 300 299 299 297 297 300 304 303 302 302
276 274 272 270 266 260 256 254 250 237 220 211 207 204 204 204 201 198 196 194 194 193 190 189 189 185 181 181 181 181 182 179 174 169 163 159 158 161 166 170 172 173 176 178 180 183 184 185 187 190 190 191 192 193 197 206 214 224 242 257 270 286 301 309 308 306 304 306 312 317 319 319 316 310 303 301 301 299 296 298 302 304 304 303 303
275 274 272 271 268 264 257 249 240 229 218 211 206 204 204 202 199 197 196 193 192 190 187 186 184 180 179 182 184 183 179 170 161 157 156 157 159 163 167 171 173 176 178 179 181 183 185 186 188 189 189 190 192 195 202 211 221 231 246 260 274 291 303 307 306 305 306 309 316 321 321 317 313 307 304 304 302 298 298 303 306 306 305 306 305
270 270 267 264 261 261 261 252 234 217 209 207 206 203 201 199 196 195 194 191 188 184 180 177 173 171 175 180 180 174 165 159 156 155 155 157 160 163 167 170 174 176 179 180 182 183 185 186 187 187 188 191 195 201 208 216 227 240 251 265 282 294 301 304 305 307 311 316 321 323 320 316 312 309 306 304 300 299 304 309 309 308 308 307 306
267 265 266 263 256 253 254 249 232 215 208 205 203 200 196 194 192 191 189 185 180 177 173 168 164 165 169 171 166 158 154 154 154 155 155 157 160 164 167 171 174 177 178 178 180 182 184 185 185 185 187 191 196 204 214 224 236 246 258 273 286 293 297 301 306 313 319 321 322 322 319 316 313 311 307 303 301 306 311 312 310 309 310 309 308
262 259 261 261 256 250 246 237 224 212 205 199 195 192 190 188 187 184 180 176 172 168 165 162 162 163 161 155 150 149 150 151 152 153 155 158 160 163 167 170 173 175 176 176 177 178 180 182 184 185 186 192 198 205 217 234 246 255 268 281 287 292 299 305 312 320 324 323 321 320 317 314 312 310 307 304 307 312 312 310 309 310 310 309 309
259 254 254 256 255 248 237 221 207 198 191 185 182 182 182 181 180 176 172 169 163 158 156 158 160 156 148 143 144 147 149 150 151 152 156 158 161 163 165 167 170 173 174 174 175 176 178 181 184 185 187 193 201 210 226 242 255 268 277 281 286 293 302 312 319 323 325 324 321 318 315 313 310 307 304 305 311 313 309 308 310 311 311 310 310
256 248 246 250 248 235 214 194 181 175 174 173 170 168 166 165 163 161 157 154 150 150 151 152 149 143 139 140 144 146 148 150 152 154 156 159 161 163 165 166 169 172 173 173 173 176 179 182 184 186 189 195 203 218 237 254 269 276 278 280 286 293 302 312 319 320 323 323 320 317 315 312 307 304 304 310 313 311 308 309 312 313 312 312 312
260 247 238 232 218 191 170 161 156 153 152 150 148 146 145 144 142 141 140 141 144 145 144 138 134 133 135 138 141 144 147 150 152 153 156 158 161 163 166 168 170 171 171 171 173 177 181 185 188 189 193 202 216 233 253 272 280 280 279 280 285 292 302 310 314 317 321 324 323 320 316 310 303 301 308 314 312 309 308 311 314 315 314 314 315
317 216 176 161 147 139 136 137 137 135 134 131 130 129 130 132 133 133 136 139 141 140 136 132 131 133 135 136 139 143 146 148 149 152 156 158 161 164 166 169 171 170 170 171 175 180 184 188 192 194 203 220 240 257 275 288 291 290 286 285 289 298 303 304 308 317 323 324 322 319 313 305 301 306 314 314 310 308 310 312 314 316 316 317 317
50 67 84 93 99 107 114 117 118 120 123 124 124 123 124 126 128 131 134 136 136 134 132 132 134 136 138 139 141 145 148 149 151 155 157 159 162 165 167 169 169 169 170 173 177 182 187 190 195 206 224 245 267 282 294 300 299 296 296 297 301 303 300 301 312 322 325 323 320 314 309 305 308 314 316 313 310 309 312 314 316 318 318 318 319
54 61 69 77 84 92 98 102 104 108 114 117 119 121 123 124 125 130 134 135 134 133 132 134 136 138 140 142 143 146 149 151 154 157 159 161 164 166 168 168 168 169 172 177 179 182 187 194 202 218 242 266 284 293 298 302 302 302 305 309 309 309 313 321 324 323 324 325 320 313 310 313 317 318 316 312 309 310 314 317 318 319 320 320 320